TimeEDT,TemperatureF,Dew PointF,Humidity,Sea Level PressureIn,VisibilityMPH,Wind Direction,Wind SpeedMPH,Gust SpeedMPH,PrecipitationIn,Events,Conditions,WindDirDegrees,DateUTC
12:15 AM,60.8,51.8,72,29.92,10.0,WSW,4.6,-,N/A,,Unknown,240,2011-10-18 04:15:00
12:35 AM,62.6,51.8,68,29.91,10.0,West,3.5,-,N/A,,Unknown,260,2011-10-18 04:35:00
12:55 AM,60.8,51.8,72,29.91,10.0,WSW,5.8,-,N/A,,Unknown,240,2011-10-18 04:55:00
1:15 AM,62.6,53.6,72,29.91,10.0,WSW,5.8,-,N/A,,Unknown,240,2011-10-18 05:15:00
1:35 AM,62.6,53.6,72,29.90,10.0,SW,8.1,-,N/A,,Unknown,230,2011-10-18 05:35:00
1:55 AM,62.6,53.6,72,29.90,10.0,SW,8.1,-,N/A,,Unknown,230,2011-10-18 05:55:00
2:15 AM,60.8,53.6,77,29.89,10.0,SW,6.9,-,N/A,,Unknown,220,2011-10-18 06:15:00
2:35 AM,62.6,53.6,72,29.90,10.0,WSW,8.1,-,N/A,,Unknown,240,2011-10-18 06:35:00
2:55 AM,62.6,53.6,72,29.89,10.0,SW,9.2,-,N/A,,Unknown,230,2011-10-18 06:55:00
3:15 AM,60.8,53.6,77,29.89,10.0,SW,8.1,-,N/A,,Unknown,220,2011-10-18 07:15:00
3:55 AM,60.8,53.6,77,29.88,10.0,SW,8.1,-,N/A,,Unknown,230,2011-10-18 07:55:00
4:15 AM,60.8,53.6,77,29.88,10.0,SW,6.9,-,N/A,,Unknown,230,2011-10-18 08:15:00
4:35 AM,57.2,51.8,82,29.88,10.0,SW,4.6,-,N/A,,Unknown,220,2011-10-18 08:35:00
4:55 AM,59.0,53.6,82,29.88,10.0,SSW,5.8,-,N/A,,Unknown,210,2011-10-18 08:55:00
5:15 AM,59.0,53.6,82,29.88,10.0,SW,6.9,-,N/A,,Unknown,230,2011-10-18 09:15:00
5:35 AM,60.8,53.6,77,29.89,10.0,SW,8.1,-,N/A,,Unknown,220,2011-10-18 09:35:00
5:55 AM,60.8,51.8,72,29.89,10.0,SW,5.8,-,N/A,,Unknown,230,2011-10-18 09:55:00
6:15 AM,60.8,51.8,72,29.89,10.0,SW,6.9,-,N/A,,Unknown,220,2011-10-18 10:15:00
6:55 AM,60.8,51.8,72,29.88,10.0,SSW,4.6,-,N/A,,Unknown,200,2011-10-18 10:55:00
7:15 AM,60.8,51.8,72,29.88,10.0,SSW,3.5,-,N/A,,Unknown,210,2011-10-18 11:15:00
7:35 AM,60.8,51.8,72,29.88,10.0,SSW,3.5,-,N/A,,Unknown,200,2011-10-18 11:35:00
7:55 AM,59.0,51.8,77,29.88,10.0,SSW,3.5,-,N/A,,Unknown,200,2011-10-18 11:55:00
8:15 AM,59.0,51.8,77,29.88,10.0,SSW,4.6,-,N/A,,Unknown,210,2011-10-18 12:15:00
8:35 AM,60.8,53.6,77,29.88,10.0,SSW,4.6,-,N/A,,Unknown,210,2011-10-18 12:35:00
8:55 AM,60.8,53.6,77,29.89,10.0,Calm,Calm,-,N/A,,Unknown,0,2011-10-18 12:55:00
9:15 AM,62.6,53.6,72,29.89,10.0,Calm,Calm,-,N/A,,Unknown,0,2011-10-18 13:15:00
9:35 AM,64.4,53.6,68,29.89,10.0,South,3.5,-,N/A,,Unknown,180,2011-10-18 13:35:00
10:15 AM,66.2,53.6,64,29.89,10.0,South,3.5,-,N/A,,Unknown,180,2011-10-18 14:15:00
10:35 AM,68.0,53.6,60,29.88,10.0,Calm,Calm,-,N/A,,Unknown,0,2011-10-18 14:35:00
10:55 AM,69.8,53.6,56,29.88,10.0,SSE,5.8,-,N/A,,Unknown,160,2011-10-18 14:55:00
11:15 AM,69.8,53.6,56,29.88,10.0,South,6.9,-,N/A,,Unknown,190,2011-10-18 15:15:00
11:35 AM,71.6,53.6,53,29.87,10.0,South,6.9,-,N/A,,Unknown,190,2011-10-18 15:35:00
11:55 AM,69.8,51.8,53,29.87,10.0,South,5.8,-,N/A,,Unknown,190,2011-10-18 15:55:00
12:15 PM,71.6,51.8,50,29.86,10.0,South,6.9,-,N/A,,Unknown,170,2011-10-18 16:15:00
12:35 PM,71.6,51.8,50,29.86,10.0,South,8.1,-,N/A,,Unknown,170,2011-10-18 16:35:00
12:55 PM,71.6,51.8,50,29.85,10.0,South,8.1,-,N/A,,Unknown,170,2011-10-18 16:55:00
1:35 PM,73.4,48.2,41,29.82,10.0,South,6.9,10.4,N/A,,Unknown,170,2011-10-18 17:35:00
1:55 PM,75.2,48.2,38,29.81,10.0,South,8.1,-,N/A,,Unknown,180,2011-10-18 17:55:00
2:15 PM,75.2,48.2,38,29.80,10.0,South,10.4,-,N/A,,Unknown,180,2011-10-18 18:15:00
2:55 PM,75.2,46.4,36,29.79,10.0,South,11.5,-,N/A,,Unknown,180,2011-10-18 18:55:00
3:15 PM,75.2,44.6,34,29.78,10.0,SSW,9.2,-,N/A,,Unknown,200,2011-10-18 19:15:00
3:35 PM,75.2,46.4,36,29.77,10.0,SW,5.8,-,N/A,,Unknown,220,2011-10-18 19:35:00
3:55 PM,77.0,44.6,32,29.77,10.0,South,3.5,-,N/A,,Unknown,180,2011-10-18 19:55:00
4:15 PM,77.0,46.4,34,29.76,10.0,SSE,4.6,-,N/A,,Unknown,150,2011-10-18 20:15:00
4:35 PM,75.2,44.6,34,29.75,10.0,South,3.5,-,N/A,,Unknown,190,2011-10-18 20:35:00
4:55 PM,75.2,44.6,34,29.75,10.0,South,3.5,-,N/A,,Unknown,180,2011-10-18 20:55:00
5:15 PM,73.4,44.6,36,29.74,10.0,SSW,3.5,-,N/A,,Unknown,210,2011-10-18 21:15:00
5:55 PM,73.4,44.6,36,29.72,10.0,Calm,Calm,-,N/A,,Unknown,0,2011-10-18 21:55:00
6:35 PM,69.8,44.6,40,29.71,10.0,Calm,Calm,-,N/A,,Unknown,0,2011-10-18 22:35:00
7:15 PM,69.8,44.6,40,29.71,10.0,Calm,Calm,-,N/A,,Unknown,0,2011-10-18 23:15:00
7:35 PM,68.0,46.4,46,29.69,10.0,Calm,Calm,-,N/A,,Unknown,0,2011-10-18 23:35:00
8:15 PM,68.0,46.4,46,29.70,10.0,SSE,4.6,-,N/A,,Unknown,160,2011-10-19 00:15:00
8:35 PM,68.0,46.4,46,29.69,10.0,SSE,5.8,-,N/A,,Unknown,160,2011-10-19 00:35:00
9:15 PM,66.2,46.4,49,29.67,10.0,SSE,8.1,-,N/A,,Unknown,160,2011-10-19 01:15:00
9:35 PM,66.2,46.4,49,29.67,10.0,South,6.9,16.1,N/A,,Unknown,170,2011-10-19 01:35:00
9:55 PM,66.2,46.4,49,29.67,10.0,South,8.1,-,N/A,,Unknown,170,2011-10-19 01:55:00
10:15 PM,66.2,46.4,49,29.66,10.0,South,8.1,-,N/A,,Unknown,170,2011-10-19 02:15:00
10:35 PM,64.4,48.2,56,29.66,10.0,SSE,10.4,16.1,N/A,,Unknown,160,2011-10-19 02:35:00
10:55 PM,64.4,46.4,52,29.65,10.0,South,10.4,-,N/A,,Unknown,170,2011-10-19 02:55:00
11:15 PM,64.4,46.4,52,29.64,10.0,SSE,10.4,17.3,N/A,,Unknown,160,2011-10-19 03:15:00
11:35 PM,64.4,46.4,52,29.63,10.0,SSE,9.2,-,N/A,,Unknown,160,2011-10-19 03:35:00
11:55 PM,64.4,46.4,52,29.63,10.0,SSE,10.4,16.1,N/A,,Unknown,160,2011-10-19 03:55:00